Location: Wald
(31.7579°N, 86.6655°W)
Time: 12:08:38
(UTC+00:00)

Cosmos 1697 Rocket - Pass Details

Date: 14 July 2020
Orbit: 834 x 842 km, 71.0° (Epoch: 09 August)

Event Time Altitude Azimuth Distance (km) Brightness Sun altitude
Rises 09:00:19 0° 329° (NNW) 3,386 6.0 -20.3°
Reaches altitude 10° 09:02:56 10° 321° (NW) 2,447 5.1 -19.9°
Maximum altitude 09:07:59 36° 256° (WSW) 1,298 3.2 -19.1°
Enters shadow 09:08:50 34° 237° (WSW) 1,342 3.2 -18.9°
